GEFSNGP_500_meanwind_096.txt.gz
Wind_Speed
13 13 14 15 14 14 14 15 16 16 16 16 16 16 16 16 15 15 15 16 17 17 17 18 18 18 18 17 17 17 17 17 17 18 18 19 20 20 20 21 21 21 21 21
13 14 14 13 12 12 13 14 15 15 15 16 17 17 17 16 16 16 16 16 17 17 17 18 18 18 18 18 17 17 17 17 17 17 18 18 19 19 20 20 20 21 21 21
13 12 12 12 11 12 13 13 14 14 16 17 18 18 18 17 17 16 17 17 17 18 18 18 18 17 17 17 17 17 17 18 18 17 17 18 18 18 17 17 18 19 19 19
12 11 11 10 11 11 13 13 13 15 16 17 18 18 18 18 17 17 17 17 17 16 16 16 16 15 15 16 16 15 16 16 16 16 16 16 16 16 16 16 17 17 17 18
12 11 10 9 10 11 12 13 13 15 17 18 18 17 17 16 16 16 16 16 15 14 14 14 13 13 13 13 13 13 13 13 13 13 14 14 14 14 15 16 17 17 17 18
10 10 9 8 10 10 11 12 14 15 16 17 16 15 15 15 15 15 15 13 11 11 10 10 10 10 10 9 9 10 10 11 11 11 11 12 13 14 15 15 16 16 16 17
10 9 7 8 9 10 11 12 14 15 15 16 15 14 14 14 14 14 12 9 8 8 8 7 7 7 6 6 6 6 7 7 8 8 9 10 11 11 13 14 14 15 15 15
9 8 6 7 7 9 11 12 13 14 14 14 14 14 13 13 13 11 8 7 6 5 5 5 5 5 5 4 4 4 4 5 5 5 6 6 7 8 9 10 11 12 12 12
7 5 4 5 7 9 10 11 12 13 13 13 13 13 12 12 11 8 6 5 3 3 3 3 4 4 4 3 3 3 3 3 3 4 4 5 6 7 7 8 9 9 10 10
6 4 3 5 6 8 10 11 12 12 12 12 11 11 11 10 9 7 6 4 2 1 2 2 3 3 2 3 2 2 2 2 2 2 3 3 4 5 5 5 6 6 7 7
4 3 2 3 5 7 9 11 11 11 11 11 11 11 10 10 8 7 6 4 2 0 2 2 2 2 2 2 2 2 2 2 1 1 1 2 2 2 2 3 3 4 4 5
4 2 0 2 4 6 9 10 10 10 11 11 11 11 11 10 9 8 6 5 3 2 3 2 2 3 2 2 2 2 2 2 1 1 1 2 2 2 1 1 1 2 2 3
3 2 0 3 4 6 8 9 9 10 11 11 11 11 11 10 10 9 8 7 6 4 4 4 4 4 4 3 3 3 3 2 2 2 2 2 2 2 2 2 2 2 2 2
2 1 0 2 4 5 7 8 9 10 11 11 12 12 12 11 11 11 10 9 8 7 7 7 6 6 6 5 4 4 4 4 3 3 3 4 4 4 4 4 4 4 4 5
2 2 2 3 4 5 6 8 9 10 11 11 12 13 13 13 12 12 12 11 11 10 10 9 9 8 8 7 6 6 6 6 5 5 5 5 6 6 6 6 6 6 6 6
4 4 3 4 4 5 7 8 9 11 11 12 12 13 14 14 14 14 13 13 13 13 13 12 11 11 10 9 9 8 8 7 7 7 7 7 7 7 7 8 8 8 8 8
4 4 4 5 5 6 7 8 9 11 12 13 14 14 15 15 15 15 15 15 15 15 14 14 13 13 12 12 11 11 10 10 10 9 9 10 10 10 10 10 10 10 10 10
6 5 6 6 6 7 8 8 10 11 12 13 14 15 16 16 16 16 16 16 16 16 15 15 15 14 14 14 13 13 12 12 12 12 12 12 12 12 12 12 11 11 11 10
8 8 7 7 7 7 8 9 10 11 11 12 14 15 16 17 18 18 18 18 18 18 18 17 16 16 16 16 15 15 15 14 14 14 14 14 14 14 13 13 12 12 11 11
9 9 9 8 8 7 8 9 10 10 11 12 13 14 16 17 17 18 19 19 19 19 19 19 18 18 18 17 17 16 16 15 15 15 14 14 14 14 13 13 12 12 12 11
12 11 10 9 9 9 9 9 10 11 12 12 13 14 15 16 17 17 18 19 19 19 19 19 19 19 18 18 17 17 16 16 16 15 15 14 14 13 13 13 12 12 11 11
13 12 11 11 10 10 10 10 11 11 12 12 13 14 14 15 16 16 17 18 18 19 19 19 19 19 18 18 17 17 16 16 15 15 15 14 14 13 13 12 12 12 11 11
15 14 13 12 11 11 11 11 11 11 12 12 13 13 14 15 15 16 16 17 17 18 18 18 19 18 18 17 17 16 16 15 15 15 14 14 13 13 13 12 12 12 11 11
18 16 15 13 12 12 11 11 11 11 12 12 13 13 14 15 15 16 16 16 17 17 17 17 17 17 17 17 16 16 15 15 14 14 14 14 13 13 12 12 12 11 11 11
20 18 16 15 14 13 12 12 11 11 12 12 12 13 14 14 15 15 16 16 16 17 17 17 17 16 16 16 15 15 15 14 14 14 14 14 13 12 12 11 11 11 11 11
23 21 19 17 16 15 14 13 12 12 11 12 12 12 13 13 14 14 15 15 15 16 16 16 16 16 15 15 15 15 14 14 13 13 13 13 12 12 11 11 11 11 12 12
25 24 21 19 18 16 15 14 14 13 12 12 12 12 12 12 13 13 14 14 14 14 15 15 15 15 15 15 14 14 14 13 13 13 12 12 12 12 11 11 11 12 12 12

GEFSNGP_500_meanwind_102.txt.gz
Wind_Speed
15 15 15 15 15 15 16 15 16 16 17 18 19 19 19 20 20 20 21 22 22 22 22 22 22 21 21 21 20 20 19 19 18 18 19 19 19 19 19 19 19 20 21 21
16 15 14 13 13 14 15 15 16 17 17 18 19 20 21 21 21 21 22 22 23 23 23 23 22 22 22 21 21 20 20 19 19 18 19 19 20 20 20 20 20 21 21 22
15 15 13 12 13 14 14 14 15 16 17 18 20 20 21 21 21 22 23 24 24 23 23 23 22 22 21 21 20 20 19 18 17 17 17 18 18 18 19 20 21 21 21 21
14 14 13 11 12 12 12 13 15 16 18 19 20 20 21 21 22 22 23 23 23 22 22 21 20 20 19 19 18 18 17 16 16 16 16 16 15 16 17 17 17 18 18 18
14 14 12 11 12 12 12 13 15 17 18 19 20 20 21 21 22 22 22 22 21 20 20 19 18 17 16 15 15 15 14 14 13 13 14 14 14 14 15 15 16 16 16 17
13 12 11 11 11 12 13 14 16 17 18 19 20 20 20 20 21 21 21 20 19 19 18 16 15 14 13 12 12 12 12 11 11 12 12 13 13 13 14 14 14 14 14 15
12 11 10 10 10 11 13 14 15 16 18 18 18 19 19 20 20 19 18 17 17 16 15 12 11 10 10 9 10 10 10 9 9 10 10 11 11 12 13 12 12 13 13 13
11 10 10 10 10 11 12 13 15 15 16 16 17 18 18 18 17 17 16 15 14 12 10 9 8 7 7 7 7 7 7 7 7 7 7 8 8 9 10 10 11 11 11 11
9 8 8 9 10 11 12 13 13 14 15 16 16 16 16 16 15 15 14 12 9 8 6 5 5 4 4 4 4 4 4 5 5 5 5 5 5 5 6 7 7 7 8 8
8 8 8 9 9 9 10 11 12 13 14 15 15 15 14 14 13 12 10 7 5 3 3 3 3 3 3 3 4 4 4 3 3 3 2 2 2 2 2 3 3 4 5 6
9 8 8 9 8 8 9 9 10 11 13 14 13 13 12 11 10 9 7 4 2 0 1 1 2 3 3 3 4 4 4 3 3 2 1 0 0 1 1 2 2 3 3 4
9 7 7 7 7 6 7 8 10 11 12 12 12 11 10 9 8 7 5 4 2 2 2 3 4 4 4 4 4 4 3 3 3 2 2 2 2 2 3 3 3 3 3 3
8 7 6 6 6 6 6 7 8 9 10 10 10 10 10 9 8 6 5 5 4 4 5 5 5 5 5 5 5 4 4 4 4 3 3 4 4 4 4 4 4 5 5 5
7 7 6 5 5 4 5 6 7 8 9 9 10 10 10 9 8 7 6 6 7 7 7 7 6 6 6 6 6 6 5 5 5 5 5 5 5 5 5 5 6 6 6 6
7 6 5 4 3 3 4 5 6 6 7 8 9 10 10 10 9 9 9 8 9 9 9 8 8 8 7 8 8 7 7 7 7 7 7 7 7 8 8 8 8 8 9 9
7 6 5 4 3 1 2 4 4 5 6 7 9 10 10 11 11 12 11 11 11 10 10 10 9 9 9 9 9 9 9 9 9 9 10 10 11 11 11 11 11 11 11 11
7 6 5 4 2 1 1 2 3 4 5 6 8 10 11 11 12 12 12 12 12 12 11 11 11 11 12 12 12 12 12 12 12 12 13 13 13 13 13 14 14 13 13 12
8 7 6 4 3 2 2 3 4 4 5 6 8 9 10 11 12 13 13 13 13 14 14 14 15 15 14 14 14 14 14 14 14 14 14 15 15 14 14 14 14 14 14 13
8 8 7 6 4 4 4 4 5 6 6 7 8 9 10 11 12 13 14 15 15 15 15 16 16 16 16 16 16 16 16 15 15 15 15 15 14 14 14 15 14 14 14 14
10 9 8 8 6 6 5 5 6 6 7 8 9 10 11 12 13 14 15 15 16 16 16 16 17 17 17 17 17 16 16 16 16 16 15 15 15 15 15 14 14 14 14 14
12 11 10 10 8 7 7 7 7 7 7 8 9 11 11 12 13 14 15 16 16 16 16 17 17 17 17 17 17 17 17 16 16 16 15 15 15 14 14 14 14 14 14 14
13 12 11 11 9 9 8 8 8 8 8 9 9 10 11 12 13 13 14 15 15 16 16 16 17 17 17 17 17 16 16 16 16 15 15 14 14 14 14 14 14 14 14 14
14 13 13 12 11 11 10 10 9 8 9 9 10 10 11 11 12 13 13 14 14 15 15 16 16 16 16 16 16 16 16 16 15 15 15 14 14 14 13 13 13 13 13 13
17 16 15 14 13 12 12 11 11 10 10 10 10 10 11 11 11 12 13 13 14 14 15 15 16 16 16 16 15 15 15 15 15 15 14 14 13 13 13 13 13 13 13 13
20 18 18 17 16 15 14 13 12 11 11 10 11 11 11 11 11 12 12 13 13 14 14 14 14 14 15 14 14 14 14 14 14 14 13 13 12 12 12 12 12 12 12 12
22 22 21 20 19 17 16 15 14 13 12 12 11 11 11 11 11 11 12 12 12 13 13 13 13 13 13 13 13 14 13 13 13 13 13 12 12 12 12 12 12 12 12 12
25 24 23 23 21 20 18 17 16 15 14 14 13 12 12 11 11 11 11 11 11 12 12 12 12 12 12 12 12 13 13 12 12 12 12 11 11 11 11 11 11 12 12 12

GEFSNGP_500_meanwind_108.txt.gz
Wind_Speed
16 16 15 15 15 15 15 15 15 16 18 19 19 20 20 20 21 22 22 23 23 23 22 22 22 21 21 21 21 21 21 21 20 21 21 20 20 21 20 20 21 22 22 22
15 15 14 14 15 15 15 16 16 16 18 18 20 20 21 21 22 22 22 23 23 22 22 22 22 21 21 21 21 21 20 21 20 21 21 20 19 20 20 19 19 20 21 21
13 13 12 13 14 14 14 14 15 16 17 18 19 20 21 22 22 22 22 23 23 22 21 21 20 20 20 20 20 20 20 19 19 19 19 18 18 18 18 17 17 17 17 17
12 12 13 13 13 13 13 14 15 16 17 18 19 20 20 21 22 22 22 22 22 21 20 19 20 19 19 19 18 17 17 17 17 17 17 16 16 15 16 15 15 14 14 15
12 12 12 12 12 11 12 13 14 15 17 18 19 20 21 22 22 22 22 21 21 19 19 19 18 18 17 16 15 14 14 14 14 14 13 13 13 14 13 13 13 13 13 14
11 11 11 12 11 11 11 12 13 14 16 17 19 20 21 21 21 21 20 19 18 18 17 16 16 15 14 13 12 11 11 11 10 10 10 10 11 11 11 11 11 11 11 11
9 10 11 11 10 10 10 12 13 14 16 17 19 20 20 20 20 19 18 16 15 14 13 13 13 12 11 10 9 9 9 9 8 8 9 8 9 9 9 9 9 9 9 9
8 9 9 9 9 9 10 12 13 14 15 16 18 19 19 18 17 16 15 13 12 11 11 10 9 9 8 7 7 7 7 6 7 7 7 7 7 7 7 6 7 7 7 7
7 8 7 7 8 9 10 11 12 14 15 16 17 17 17 16 14 13 13 11 10 8 7 7 7 5 5 4 4 5 5 5 5 4 4 5 5 4 4 4 4 5 5 5
7 7 7 7 7 8 9 11 12 13 14 15 15 16 14 13 12 12 10 8 6 5 4 4 2 2 2 2 3 3 4 4 3 3 3 3 2 2 2 2 2 3 3 4
6 7 6 5 6 7 9 10 12 12 13 13 14 14 13 12 11 9 8 6 4 3 2 1 0 1 2 3 4 4 5 5 4 4 3 3 2 2 1 1 1 1 1 1
6 6 5 5 6 7 8 9 9 10 11 12 12 12 12 11 10 8 7 5 4 3 2 2 2 3 4 5 6 6 6 6 5 5 5 4 4 4 3 3 3 3 3 3
5 5 5 5 5 6 7 7 8 9 11 11 11 11 10 10 8 7 6 6 5 4 4 4 4 5 6 6 7 7 7 7 6 6 6 6 6 6 6 6 5 5 5 6
4 4 3 3 4 5 6 7 8 9 10 10 10 10 10 9 8 7 6 6 6 6 6 6 7 8 8 8 8 8 8 8 8 8 8 8 7 7 7 7 8 8 8 8
4 3 3 2 2 3 5 6 8 9 9 9 9 9 9 9 8 8 8 8 8 8 8 8 9 9 9 10 10 10 10 10 10 10 9 9 9 9 10 10 10 10 10 10
3 3 2 2 1 3 5 6 7 7 8 8 9 9 9 9 9 9 9 9 9 9 10 10 10 10 11 11 11 11 11 11 11 11 12 12 12 13 13 12 12 12 12 11
3 3 3 3 3 3 4 6 6 6 6 7 8 8 9 9 9 10 10 10 10 10 11 12 12 12 13 13 13 13 13 13 13 14 15 15 15 14 14 14 14 13 13 13
3 3 4 3 3 3 4 5 4 4 4 5 6 7 8 9 9 10 10 11 11 12 12 13 13 13 14 14 15 15 15 16 16 16 16 16 15 15 15 15 14 14 14 14
4 4 4 4 4 4 3 2 2 3 3 4 5 7 8 8 9 10 11 11 12 13 13 14 14 15 15 16 16 16 16 17 16 16 16 16 15 15 14 14 14 14 13 13
5 4 4 3 3 3 2 1 1 2 3 4 5 6 7 8 9 10 11 11 12 13 14 14 15 15 15 15 16 16 16 16 16 16 15 15 14 14 14 14 14 14 14 13
6 5 5 4 4 3 3 2 1 2 3 4 5 6 7 7 8 10 11 12 12 13 13 14 14 15 15 15 15 15 15 15 15 15 15 14 14 14 14 14 14 14 14 14
7 6 6 5 5 4 4 3 3 3 3 4 5 6 7 7 8 9 11 12 12 12 13 13 14 14 14 14 14 14 15 14 14 14 14 14 14 14 14 14 14 14 13 13
8 8 7 6 6 5 5 4 4 4 4 5 6 6 7 7 8 9 10 11 11 12 12 13 13 13 13 14 14 14 14 14 14 14 14 14 13 13 13 13 13 13 12 12
10 10 9 9 8 7 6 6 6 6 6 6 6 6 6 7 8 8 9 10 10 11 11 12 12 13 13 13 14 14 14 14 14 13 13 13 13 13 13 12 12 12 11 11
13 12 12 11 10 10 9 8 7 7 7 7 7 7 7 7 8 8 8 9 9 10 10 11 12 12 12 13 13 13 13 13 13 12 12 12 12 12 11 11 10 10 10 10
15 15 14 14 13 12 11 10 10 9 9 8 8 8 8 9 9 8 8 9 9 9 10 10 11 11 11 11 12 12 12 12 12 11 11 11 10 10 9 9 8 8 8 8
18 18 17 17 16 15 14 13 12 12 11 10 10 10 10 10 10 9 9 9 9 9 9 9 10 10 10 10 10 10 10 10 10 10 9 8 8 7 7 7 6 6 7 7

GEFSNGP_500_meanwind_114.txt.gz
Wind_Speed
13 13 11 10 11 13 16 17 18 19 21 22 23 22 21 22 23 23 23 24 25 25 25 25 25 24 25 25 24 23 22 22 22 22 21 21 21 21 20 20 20 20 20 20
12 11 11 11 12 14 16 17 19 20 21 22 23 22 23 24 24 23 24 25 25 25 25 24 24 24 25 24 23 22 21 20 20 20 19 19 20 20 19 18 17 17 17 17
12 12 13 14 14 15 15 16 19 20 21 22 23 22 23 24 24 25 24 24 24 24 24 24 24 24 23 22 21 20 19 19 18 18 17 17 18 18 17 17 16 16 16 15
12 12 13 13 13 14 15 16 18 18 19 20 21 23 23 24 24 24 24 23 23 23 23 22 22 21 20 19 18 18 18 17 17 16 16 16 16 16 16 16 15 15 15 15
11 11 13 13 12 13 15 16 17 17 18 19 21 22 23 23 23 23 23 22 22 21 21 20 19 19 18 17 16 16 15 15 15 15 14 15 14 14 14 14 14 13 13 13
9 10 11 11 11 12 15 16 17 17 18 19 20 21 21 21 21 21 21 20 20 19 18 18 17 16 16 15 14 14 13 13 13 13 13 12 12 11 11 11 11 11 11 10
8 10 11 11 11 12 14 15 17 17 18 18 19 19 19 19 19 19 18 18 17 16 16 15 14 14 13 12 12 11 11 11 11 11 10 9 9 8 8 8 8 8 8 8
8 9 9 10 11 11 12 14 15 16 17 17 18 18 18 18 18 17 16 15 14 14 14 13 12 11 10 10 9 10 10 9 8 8 7 6 5 6 6 6 5 5 5 5
8 8 8 9 9 10 11 12 13 15 16 16 16 16 16 17 16 15 14 14 13 13 12 11 10 9 9 9 8 8 7 5 5 4 4 4 4 3 3 3 3 2 2 2
6 6 6 7 8 9 11 12 13 13 14 14 14 14 15 15 15 14 13 13 12 11 10 9 8 7 6 6 5 4 3 3 2 2 2 1 1 1 1 1 1 1 1 1
6 6 7 7 7 9 10 11 11 12 12 13 14 14 14 15 14 13 13 12 10 9 8 7 6 4 3 3 2 1 1 1 1 2 3 3 3 3 2 2 2 2 2 3
6 6 6 7 7 8 9 10 11 11 11 12 13 13 13 13 13 12 11 10 9 7 6 5 4 3 2 2 2 2 2 3 4 4 4 4 4 5 4 4 4 4 3 4
5 5 5 6 6 6 8 9 10 10 11 12 12 12 12 12 11 10 10 9 8 6 6 5 5 4 3 4 4 4 5 6 6 6 6 6 6 6 6 6 6 5 6 6
4 4 5 5 6 6 8 8 9 10 11 11 12 12 11 11 10 10 9 8 7 6 5 5 5 5 5 5 6 6 6 6 7 7 7 8 8 8 8 8 8 8 8 8
4 4 5 5 6 6 7 8 9 10 11 11 11 11 11 10 10 10 9 8 7 7 6 6 6 6 7 7 7 7 8 8 9 9 9 9 9 10 10 10 11 11 12 12
4 4 4 5 6 6 7 7 8 9 10 10 10 10 10 10 10 10 10 9 8 8 7 7 8 8 8 8 8 9 10 10 10 11 11 11 11 12 12 13 13 14 14 14
4 4 4 5 6 6 6 6 7 8 8 8 9 10 10 9 10 10 9 9 9 9 9 9 9 9 10 10 10 10 11 11 12 12 12 13 13 13 14 14 15 15 15 16
4 4 4 5 6 5 5 5 6 6 7 8 8 9 9 9 9 9 9 9 9 9 9 9 10 10 11 11 11 11 11 12 13 13 13 13 14 14 14 15 15 16 16 16
4 4 4 5 5 5 4 4 4 5 6 7 7 7 8 9 9 9 9 9 9 9 10 10 10 11 11 11 12 12 12 13 14 14 14 14 14 14 15 15 15 15 16 16
5 4 4 4 4 4 4 3 3 3 4 5 5 6 7 7 8 8 9 9 9 9 10 10 10 11 11 12 12 12 13 13 14 14 14 14 14 14 14 14 15 15 15 15
5 5 5 4 4 4 3 2 2 3 3 4 4 5 5 6 7 8 9 9 9 9 9 10 10 10 11 11 12 12 12 13 13 13 13 13 13 14 14 14 14 14 14 15
6 6 5 5 4 3 2 2 1 2 2 3 3 4 5 6 7 7 8 8 8 8 9 9 10 10 10 11 11 11 12 12 12 12 12 13 13 13 13 13 13 13 13 14
7 6 6 5 4 3 2 1 0 1 1 2 3 3 4 5 6 6 6 6 6 7 8 8 9 9 9 10 10 10 11 11 11 12 12 12 12 13 13 13 12 13 13 13
8 7 7 6 5 4 3 2 2 1 1 1 2 2 3 3 4 4 5 5 6 6 7 7 7 8 8 8 9 9 10 10 11 11 12 12 11 11 11 11 11 11 11 11
9 9 8 8 7 6 6 5 4 4 3 2 2 2 2 2 2 3 3 4 4 5 6 6 6 6 7 8 8 8 8 9 9 10 10 10 10 10 9 9 9 9 9 9
12 11 11 10 9 9 9 8 7 7 6 5 4 4 3 3 3 3 3 3 4 4 4 5 5 5 5 6 6 6 7 7 7 8 8 7 7 7 7 7 7 6 6 7
14 14 13 12 12 12 11 11 11 10 9 8 7 7 6 5 5 5 5 4 4 4 4 4 4 5 5 5 5 5 5 5 6 6 6 5 5 4 4 4 4 4 4 4